Overview Statistics Trail Chart Weather Telemetry Raw packets
 

This is the latest recevied weather packets stored in our database for station/object EB1BWO-11. If no packets are shown the sender has not sent any weather packets the latest 10 day(s).

<< 14 15 16 17 18 19 20 >>
Time Temp. Humidity Pressure Rain* Wind** Luminosity Snow
1788271652 26.67° C 53% 1023 hPa - - - -
1788270752 27.78° C 52% 1023.2 hPa - - - -
1788269852 27.78° C 53% 1023.6 hPa - - - -
1788268952 28.89° C 50% 1023.6 hPa - - - -
1788268052 36.67° C 40% 1023.6 hPa - - - -
1788267152 30.56° C 48% 1023.7 hPa - - - -
1788266251 31.11° C 46% 1023.7 hPa - - - -
1788265351 31.67° C 45% 1023.7 hPa - - - -
1788264452 28.33° C 51% 1023.8 hPa - - - -
1788263551 33.33° C 40% 1023.8 hPa - - - -
1788262650 37.78° C 35% 1023.7 hPa - - - -
1788261750 37.78° C 35% 1023.8 hPa - - - -
1788260850 40.56° C 32% 1023.9 hPa - - - -
1788259950 37.78° C 38% 1024 hPa - - - -
1788259050 36.11° C 39% 1024.2 hPa - - - -
1788258150 33.33° C 45% 1024.3 hPa - - - -
1788257250 30° C 47% 1024.4 hPa - - - -
1788256350 30° C 51% 1024.3 hPa - - - -
1788255449 28.33° C 50% 1024.3 hPa - - - -
1788254549 27.22° C 52% 1024.1 hPa - - - -
1788253649 27.78° C 52% 1024.1 hPa - - - -
1788252749 26.67° C 54% 1024.1 hPa - - - -
1788251849 25.56° C 55% 1024.1 hPa - - - -
1788250949 25° C 57% 1024 hPa - - - -
1788250049 23.33° C 59% 1024 hPa - - - -

* Rain since midnight (hover to see other rain measurements)
** Current wind speed in m/s (hover to see current wind gust speed)